Date,TemperatureHighF,TemperatureAvgF,TemperatureLowF,DewpointHighF,DewpointAvgF,DewpointLowF,HumidityHigh,HumidityAvg,HumidityLow,PressureMaxIn,PressureMinIn,WindSpeedMaxMPH,WindSpeedAvgMPH,GustSpeedMaxMPH,PrecipitationSumIn
2013-1-1,46.0,43.0,37.3,44.4,37.0,20.0,95,81,40,29.99,29.82,6,0,0,0.33
2013-1-2,44.0,39.1,36.1,42.6,36.3,33.2,95,90,83,30.01,29.77,7,0,0,0.08
2013-1-3,38.5,34.7,26.8,36.4,32.0,23.7,95,90,83,30.17,29.96,6,0,0,0.00
2013-1-4,40.4,29.7,23.4,25.6,22.1,20.0,89,74,48,30.28,30.15,10,0,0,0.00
2013-1-5,47.4,34.0,22.9,31.4,23.1,18.4,87,66,37,30.29,30.11,7,0,0,0.00
2013-1-6,46.7,37.5,29.7,37.5,32.7,26.1,91,83,68,30.11,29.92,9,0,0,0.00
2013-1-7,49.0,35.7,26.3,28.8,26.0,23.0,88,69,40,30.29,30.09,10,1,0,0.00
2013-1-8,52.5,36.4,27.5,43.7,30.7,24.0,91,80,64,30.33,30.22,6,0,0,0.00
2013-1-9,55.2,50.9,47.8,52.8,49.1,46.4,95,93,89,30.32,30.23,3,0,0,0.00
2013-1-10,62.9,52.0,44.3,53.2,48.1,43.2,97,87,68,30.35,30.17,6,0,0,0.04
2013-1-11,57.5,51.6,48.2,56.7,50.5,46.8,97,96,93,30.17,29.98,6,0,0,0.67
2013-1-12,69.5,59.9,55.3,63.2,57.6,53.6,97,92,74,30.01,29.90,5,0,0,0.03
2013-1-13,63.2,59.2,55.5,57.4,55.8,53.3,94,88,79,29.94,29.86,7,0,0,0.03
2013-1-14,60.8,57.2,45.2,59.9,55.9,43.9,97,95,91,29.98,29.85,7,0,0,1.08
2013-1-15,54.9,47.8,43.8,54.0,46.7,42.7,97,96,95,29.96,29.87,4,0,0,1.36
2013-1-16,54.9,49.7,43.9,54.0,48.7,42.8,97,96,96,29.88,29.79,4,0,0,0.50
2013-1-17,51.2,42.5,32.0,50.1,41.1,28.0,100,95,85,30.06,29.61,17,1,0,1.79
2013-1-18,44.8,33.9,27.7,28.2,23.4,16.2,86,67,35,30.38,30.06,10,1,0,0.25
2013-1-19,52.1,33.7,25.5,30.2,25.5,20.0,89,74,29,30.35,30.05,5,0,0,0.00
2013-1-20,43.2,32.0,29.1,32.2,25.6,22.8,84,77,56,30.04,30.00,3,0,0,0.00
2013-1-21,52.8,40.6,27.8,30.7,24.4,18.1,79,54,36,29.96,29.83,14,1,0,0.00
2013-1-22,30.7,24.8,18.9,20.0,8.8,0.1,73,52,31,30.15,29.88,10,1,0,0.00
2013-1-23,41.2,27.0,16.3,22.3,14.6,5.2,80,60,44,30.25,29.98,6,0,0,0.00
2013-1-24,37.7,30.8,21.4,27.1,16.1,4.3,86,56,37,30.32,29.91,16,1,0,0.00
2013-1-25,34.7,22.3,18.3,33.2,10.8,3.8,94,62,47,30.34,29.97,7,0,0,0.07
2013-1-26,42.4,34.1,29.4,31.6,27.9,25.5,92,78,61,30.22,30.07,4,0,0,0.00
2013-1-27,42.8,33.6,25.2,31.6,27.5,22.2,92,79,61,30.39,30.22,6,0,0,0.00
2013-1-28,60.9,46.3,36.1,49.6,40.4,28.7,94,80,64,30.32,30.10,12,0,0,0.00
2013-1-29,66.7,54.3,40.2,56.5,49.1,38.1,94,83,63,30.11,29.84,12,0,0,0.07
2013-1-30,60.1,56.5,42.2,58.6,54.7,40.0,95,93,88,29.85,29.30,22,2,0,3.39
2013-1-31,42.2,35.0,28.4,40.3,24.3,17.0,93,67,40,29.89,29.35,12,1,0,0.00
2013-2-1,38.0,28.0,19.2,28.5,13.5,4.0,74,55,38,30.24,29.80,14,2,0,0.00
2013-2-2,40.5,34.1,27.2,30.5,23.8,9.1,93,70,33,30.23,29.92,9,0,0,0.00
2013-2-3,45.4,33.8,27.2,32.3,24.9,19.6,92,72,37,29.92,29.77,15,1,0,0.00
2013-2-4,50.5,34.5,23.4,26.3,22.1,17.8,83,63,35,30.02,29.87,10,0,0,0.00
2013-2-5,55.4,42.4,30.4,40.5,29.7,23.6,80,62,37,29.88,29.78,11,1,0,0.00
2013-2-6,58.3,43.1,31.2,34.3,29.5,24.2,89,62,30,30.08,29.87,7,0,0,0.00
2013-2-7,41.9,38.7,35.9,38.9,31.2,22.6,95,76,50,30.11,29.86,7,0,0,0.43
2013-2-8,49.4,41.2,30.7,45.0,36.2,26.2,96,83,50,30.00,29.79,12,0,0,0.00
2013-2-9,54.8,39.1,27.2,26.5,21.1,9.0,83,54,20,30.20,29.97,10,0,0,0.00
2013-2-10,49.7,41.6,35.3,43.0,29.3,20.7,95,64,39,30.25,30.01,9,0,0,0.55
2013-2-11,57.4,48.9,40.9,54.3,45.5,35.0,97,88,67,30.02,29.82,7,0,0,0.28
2013-2-12,51.2,42.5,35.7,38.6,30.8,24.0,93,66,40,29.97,29.79,7,0,0,0.07
2013-2-13,48.9,39.7,30.6,43.2,35.8,27.0,95,86,68,29.80,29.49,13,1,0,0.05
2013-2-14,50.7,36.7,27.5,33.9,28.5,24.8,90,74,38,29.93,29.76,7,0,0,0.00
2013-2-15,55.7,40.1,29.4,36.6,29.6,25.3,88,69,36,29.98,29.82,10,0,0,0.00
2013-2-16,34.4,28.8,21.3,29.7,20.5,7.4,91,71,49,29.90,29.71,11,1,0,0.03
2013-2-17,35.4,25.6,18.1,15.6,8.2,4.2,72,49,28,30.16,29.89,15,1,0,0.00
2013-2-18,50.1,30.5,20.6,25.6,18.3,13.2,81,63,36,30.27,30.15,9,0,0,0.00
2013-2-20,41.5,33.7,27.7,14.4,11.7,10.2,55,40,28,30.03,29.99,6,0,0,0.18
2013-2-21,58.6,38.5,23.8,35.4,20.3,12.3,93,52,22,30.10,29.96,6,0,0,0.33
2013-2-22,40.2,36.4,33.0,38.6,34.7,30.9,95,93,90,30.13,29.95,4,0,0,0.54
2013-2-23,51.7,44.4,37.3,48.7,42.6,35.7,96,94,87,29.96,29.69,3,0,0,0.25
2013-2-24,53.4,42.5,33.2,43.7,32.7,25.1,100,72,38,29.91,29.71,12,1,0,0.00
2013-2-25,43.9,36.0,30.1,29.3,26.1,23.1,90,68,50,30.01,29.86,9,0,0,0.01
2013-2-26,36.4,32.9,30.2,35.1,31.2,28.1,95,93,90,29.90,29.45,6,0,0,2.53
2013-2-27,54.2,40.7,30.0,38.2,32.2,28.0,94,74,47,29.69,29.53,10,0,0,0.00
2013-2-28,41.1,34.4,29.2,30.9,24.5,21.2,85,67,50,29.77,29.57,15,1,0,0.00
2013-3-1,36.8,33.2,28.9,28.5,25.5,22.9,82,73,66,29.81,29.75,10,1,0,0.00
2013-3-2,37.6,31.9,25.6,28.0,24.2,17.1,90,74,50,29.82,29.72,11,1,0,0.01
2013-3-3,32.0,25.5,20.2,18.1,15.5,12.0,82,66,51,29.92,29.80,15,2,0,0.00
2013-3-4,49.9,33.8,18.0,27.0,17.9,12.0,82,55,28,30.05,29.89,7,0,0,0.00
2013-3-5,48.8,43.0,32.3,46.1,36.7,25.3,95,79,56,29.95,29.49,7,0,0,0.62
2013-3-6,35.5,30.3,26.1,28.4,22.2,16.3,87,72,52,30.04,29.51,15,2,0,0.00
2013-3-7,44.5,32.2,26.2,29.9,24.8,21.8,86,75,55,30.17,30.02,11,1,0,0.00
2013-3-8,51.3,35.4,23.6,23.7,20.7,13.0,88,60,26,30.22,30.13,14,1,0,0.00
2013-3-9,60.7,43.4,27.1,31.6,26.6,21.1,81,55,30,30.22,30.10,6,0,0,0.00
2013-3-10,63.2,49.5,36.9,35.7,31.8,28.3,73,53,32,30.12,30.00,10,1,0,0.00
2013-3-11,54.2,51.7,47.1,49.8,48.9,44.9,95,90,81,29.87,29.68,11,0,0,0.72
2013-3-12,48.4,44.4,35.5,40.0,34.1,30.3,93,67,59,29.88,29.73,10,2,0,0.44
2013-3-13,48.4,43.4,28.5,23.8,20.1,16.1,62,40,31,30.04,29.88,13,2,0,0.00
2013-3-14,30.1,26.3,23.6,19.3,14.8,13.1,66,61,59,30.11,30.03,11,2,0,0.00
2013-3-15,66.8,45.8,26.2,38.4,27.4,16.9,78,52,29,30.10,29.82,13,1,0,0.00
2013-3-16,74.5,65.5,55.1,46.3,43.9,41.0,60,47,33,29.72,29.58,19,2,0,0.00
2013-3-17,72.2,60.3,47.9,49.4,44.9,41.9,81,58,39,29.81,29.66,7,0,0,0.00
2013-3-18,47.8,40.9,36.8,42.6,38.3,34.8,95,90,82,29.88,29.73,5,0,0,0.63
2013-3-19,42.6,39.2,33.7,42.5,35.5,20.8,100,88,50,29.94,29.73,4,0,0,0.04
2013-3-20,38.5,35.9,31.2,29.0,15.2,4.1,89,45,26,29.94,29.71,9,1,0,0.00
2013-3-21,31.1,25.5,19.8,28.5,19.6,12.4,91,78,57,29.85,29.64,4,0,0,0.03
2013-3-22,48.9,34.9,23.1,26.5,18.7,12.0,70,53,32,29.94,29.85,9,0,0,0.00
2013-3-23,54.7,43.2,35.0,42.5,36.2,31.2,90,77,61,29.89,29.73,9,1,0,0.00
2013-3-24,44.7,40.9,37.8,40.0,38.1,36.1,94,90,77,29.78,29.38,6,0,0,0.88
2013-3-25,35.9,32.2,28.7,34.1,22.5,17.2,94,69,50,29.78,29.39,13,1,13,0.01
2013-3-26,36.9,31.0,26.4,21.8,19.9,17.6,74,63,51,30.08,29.78,13,2,13,0.00
2013-3-27,43.2,34.0,27.2,25.8,22.0,17.9,76,62,48,30.15,30.06,14,2,14,0.00
2013-3-28,53.6,37.2,25.8,24.3,19.4,12.8,81,53,20,30.19,30.08,14,1,14,0.00
2013-3-29,56.6,40.2,28.4,37.8,26.2,17.4,91,61,27,30.22,30.10,10,0,10,0.00
2013-3-30,61.8,47.9,38.0,43.1,38.6,35.8,95,73,44,30.11,29.91,10,0,10,0.05
2013-3-31,64.0,52.9,45.3,53.3,48.2,39.5,96,85,58,29.91,29.67,11,0,11,0.30
2013-4-1,64.8,52.2,40.0,49.2,39.7,31.2,95,66,35,29.83,29.69,12,1,13,0.00
2013-4-2,55.6,44.4,32.4,32.9,26.9,21.3,83,53,30,30.00,29.82,10,1,10,0.00
2013-4-3,59.2,47.0,37.7,29.8,22.3,15.7,55,38,28,30.10,30.00,10,1,10,0.00
2013-4-4,45.7,36.4,32.6,34.6,31.5,23.8,99,84,46,30.09,29.84,10,0,10,0.89
2013-4-5,56.6,43.9,35.1,41.5,35.5,28.2,95,75,35,29.95,29.80,15,1,15,0.00
2013-4-6,66.0,50.2,34.2,39.2,33.8,29.9,87,57,30,30.09,29.94,9,0,9,0.00
2013-4-7,67.5,55.1,40.1,45.5,39.1,31.4,78,56,40,30.04,29.93,11,1,11,0.00
2013-4-8,72.5,59.2,43.6,52.4,47.1,39.9,90,66,44,29.99,29.90,11,1,11,0.00
2013-4-9,80.5,65.4,49.8,57.0,52.3,46.5,91,65,43,30.02,29.91,11,0,11,0.00
2013-4-10,83.3,68.1,53.0,58.4,53.9,49.0,88,63,39,29.93,29.76,9,0,9,0.00
2013-4-11,75.7,65.7,56.9,61.9,55.8,51.1,94,72,46,29.77,29.48,12,1,12,0.32
2013-4-12,74.9,62.3,47.4,61.9,50.2,37.1,95,69,26,29.67,29.42,14,1,14,1.17
2013-4-13,69.4,54.2,40.5,42.2,37.0,32.3,84,56,27,29.90,29.66,12,1,12,0.00
2013-4-14,68.4,54.4,41.5,49.0,41.5,35.2,92,64,34,29.94,29.82,7,0,7,0.06
2013-4-15,62.2,55.0,49.9,55.9,52.0,48.0,96,90,78,30.04,29.80,6,0,6,0.27
2013-4-16,74.8,63.0,54.2,60.2,55.8,52.5,95,79,55,30.11,30.01,6,0,6,0.00
2013-4-17,76.9,61.0,55.4,63.2,56.8,52.6,95,87,55,30.07,29.96,12,0,12,0.44
2013-4-18,74.5,63.2,54.4,61.2,56.9,52.9,96,81,52,29.96,29.75,11,0,11,0.04
2013-4-19,63.7,58.3,41.9,61.9,56.0,36.5,95,92,81,29.76,29.52,15,1,15,0.93
2013-4-20,57.7,45.5,35.8,36.8,29.6,23.7,82,55,36,30.14,29.75,16,1,16,0.00
2013-4-21,59.9,45.8,33.0,37.2,32.6,27.3,91,64,36,30.29,30.14,13,1,13,0.00
2013-4-22,62.0,48.8,40.4,40.0,36.2,33.1,85,64,37,30.25,30.05,12,1,12,0.00
2013-4-23,71.8,52.3,35.0,45.7,38.8,30.6,88,63,37,30.13,29.95,7,0,7,0.00
2013-4-24,70.0,58.8,48.4,56.7,50.1,43.6,91,74,54,29.98,29.84,12,1,12,0.01
2013-4-25,66.7,52.3,38.9,47.7,33.9,25.0,91,55,23,30.17,29.91,12,1,12,0.00
2013-4-26,68.5,53.6,38.4,41.8,34.9,30.4,81,52,30,30.26,30.14,9,0,9,0.00
2013-4-27,54.0,50.5,48.3,49.9,46.6,40.8,95,87,61,30.22,30.09,4,0,4,0.77
2013-4-28,50.3,48.3,45.8,49.2,47.1,44.4,96,96,95,30.10,29.89,4,0,4,2.23
2013-4-29,71.8,58.2,49.2,58.2,52.6,48.1,97,83,55,29.93,29.77,9,0,9,0.08
2013-4-30,69.5,58.3,48.0,57.0,52.7,46.3,96,83,58,30.01,29.81,8,0,8,0.00
2013-5-1,61.2,56.6,53.3,54.2,51.1,49.4,91,82,69,30.10,30.00,13,1,13,0.00
2013-5-2,57.1,53.5,51.6,53.5,51.3,49.5,95,92,87,30.11,30.05,12,0,12,0.05
2013-5-3,55.2,51.9,49.0,50.9,49.3,47.2,95,91,81,30.07,29.93,11,1,11,0.07
2013-5-4,51.3,46.7,44.1,49.0,44.1,39.6,95,91,82,29.93,29.82,13,1,13,1.03
2013-5-5,48.9,46.1,44.1,47.7,44.8,42.8,96,95,94,29.86,29.68,16,1,16,4.47
2013-5-6,63.6,52.6,42.6,50.7,46.2,40.4,97,81,52,29.74,29.65,7,0,7,0.07
2013-5-7,68.8,51.3,38.2,49.8,43.6,36.5,95,78,34,29.81,29.72,9,0,9,0.00
2013-5-8,66.0,55.2,45.2,56.1,50.3,43.5,96,84,63,29.90,29.77,4,0,4,0.00
2013-5-9,76.0,60.3,46.5,58.3,52.3,45.0,96,77,47,29.96,29.87,6,0,6,0.00
2013-5-10,76.6,63.7,52.0,60.5,55.7,50.3,95,77,51,29.94,29.78,11,0,11,0.00
2013-5-11,73.0,63.2,55.5,62.8,56.6,52.1,94,80,59,29.79,29.63,10,0,10,0.04
2013-5-12,63.7,54.2,43.2,55.0,42.7,33.9,94,68,40,29.91,29.70,13,1,13,0.01
2013-5-13,64.7,49.8,37.7,36.1,31.1,23.5,85,54,22,30.05,29.91,11,0,11,0.00
2013-5-14,72.5,55.4,36.0,51.4,40.9,31.8,92,61,34,30.10,29.93,5,0,5,0.00
2013-5-15,85.8,67.8,51.1,62.0,54.5,48.2,91,65,36,29.95,29.79,9,0,9,0.00
2013-5-16,77.7,65.6,54.2,59.2,54.6,49.1,88,70,38,29.87,29.79,0,0,0,0.00
2013-5-17,77.6,65.5,55.1,61.9,56.9,52.8,95,76,49,29.93,29.84,4,0,4,0.00
2013-5-18,65.0,61.7,59.0,62.9,59.5,55.7,96,93,81,29.93,29.87,0,0,4,4.38
2013-5-19,71.4,64.2,59.8,67.0,61.8,58.1,97,92,83,29.94,29.83,0,0,4,0.11
2013-5-20,79.4,65.4,58.2,68.3,61.5,56.8,98,88,59,29.95,29.86,3,0,3,0.00
2013-5-21,83.4,66.4,58.2,67.6,61.4,56.8,98,86,53,29.89,29.78,4,0,4,0.02
2013-5-22,80.8,66.8,59.0,68.0,62.1,57.6,96,86,59,29.85,29.70,5,0,5,0.49
2013-5-23,75.7,64.9,59.0,66.2,59.9,54.5,97,85,63,29.77,29.68,10,0,10,0.10
2013-5-24,67.0,58.1,47.9,55.4,45.9,36.7,93,67,39,30.07,29.74,16,0,16,0.00
2013-5-25,76.3,57.5,41.1,46.6,40.5,34.8,90,58,26,30.17,30.03,6,0,6,0.00
2013-5-26,73.0,58.1,49.0,52.6,47.2,40.9,91,69,41,30.12,30.02,5,0,5,0.01
2013-5-27,79.5,64.3,49.4,59.0,53.7,47.2,95,71,45,30.11,29.98,5,0,5,0.00
2013-5-28,81.0,67.3,57.9,63.3,58.4,54.8,91,75,51,30.03,29.97,6,0,6,0.00
2013-5-29,83.1,68.7,56.9,65.2,59.8,54.6,94,75,51,30.05,29.98,5,0,5,0.00
2013-5-30,81.6,67.9,57.8,64.3,59.7,55.8,95,77,50,30.09,29.99,4,0,4,0.00
2013-5-31,81.5,69.0,60.8,64.1,60.5,57.5,94,76,50,30.04,29.94,5,0,5,0.00
2013-6-1,81.3,70.2,62.5,65.2,62.0,59.3,91,76,54,29.95,29.84,4,0,4,0.00
2013-6-2,73.9,65.5,61.8,70.2,63.5,60.6,97,93,83,29.88,29.74,4,0,4,1.99
2013-6-3,77.1,65.5,61.3,68.9,62.7,60.1,97,91,71,29.78,29.72,9,0,9,0.01
2013-6-4,79.5,67.6,57.2,66.2,61.3,55.5,96,81,54,29.91,29.80,6,0,6,0.00
2013-6-5,78.7,68.0,63.2,68.3,63.4,60.6,95,86,65,29.92,29.78,7,0,7,0.43
2013-6-6,73.3,66.6,61.4,69.0,64.3,60.2,97,92,82,29.82,29.62,3,0,3,0.27
2013-6-7,78.1,66.8,61.9,70.7,64.3,60.4,96,92,69,29.68,29.52,5,0,6,0.51
2013-6-8,80.2,67.9,59.5,69.0,63.5,58.4,96,87,58,29.93,29.67,3,0,3,0.14
2013-6-9,81.2,68.1,61.6,70.8,64.7,60.1,96,90,69,29.98,29.86,8,0,8,0.63
2013-6-10,72.8,66.8,63.8,68.5,64.3,61.5,97,92,72,29.87,29.75,7,0,7,1.11
2013-6-11,83.7,71.1,62.6,68.4,63.5,59.9,96,79,49,29.85,29.77,7,0,7,0.02
2013-6-12,90.2,72.9,60.7,74.2,65.6,59.3,96,80,43,29.87,29.76,8,0,8,0.00
2013-6-13,86.8,71.6,62.3,70.8,65.0,60.5,96,82,48,29.77,29.54,8,0,8,0.04
2013-6-14,77.6,67.3,57.6,62.2,55.0,52.1,95,67,44,29.89,29.64,12,0,12,0.00
2013-6-15,81.7,65.6,51.9,64.1,57.2,49.9,94,76,51,29.99,29.89,3,0,4,0.00
2013-6-16,82.0,69.8,57.1,68.0,62.0,54.8,94,77,54,29.97,29.85,4,0,4,0.00
2013-6-17,77.2,69.1,64.5,70.5,66.2,62.1,96,91,74,29.88,29.78,4,0,4,0.88
2013-6-18,78.5,67.8,61.1,71.7,65.4,59.2,97,92,74,29.80,29.65,5,0,5,0.03
2013-6-19,76.1,66.7,59.0,66.9,61.5,57.6,96,84,65,29.97,29.77,7,0,7,0.00
2013-6-20,78.3,66.7,59.1,66.3,61.5,57.5,96,84,61,30.07,29.95,6,0,6,0.00
2013-6-21,80.4,67.8,58.9,64.6,60.6,57.3,96,79,51,30.11,30.01,7,0,7,0.00
2013-6-22,82.8,68.2,57.5,62.7,58.4,53.1,96,74,38,30.08,29.95,5,0,5,0.00
2013-6-23,77.8,67.8,58.7,71.1,63.9,57.0,95,88,68,30.05,29.96,4,0,4,0.48
2013-6-24,81.3,69.9,62.5,73.0,66.1,61.3,97,89,65,30.06,29.93,4,0,4,0.24
2013-6-25,82.5,70.2,62.3,70.1,65.2,60.7,96,85,60,29.99,29.86,5,0,5,0.00
2013-6-26,84.3,70.2,61.8,73.5,66.6,60.3,96,89,59,29.90,29.76,5,0,5,0.41
2013-6-27,83.8,71.7,63.2,74.6,67.9,62.0,97,89,67,29.81,29.60,6,0,6,0.25
2013-6-28,86.1,72.4,62.8,72.5,66.6,61.3,97,84,52,29.67,29.46,1,0,4,0.07
2013-6-29,83.6,69.8,60.9,69.7,63.2,55.5,97,82,39,29.55,29.48,6,0,7,0.00
2013-6-30,83.6,70.4,59.2,68.0,63.1,57.5,95,79,51,29.65,29.54,4,0,4,0.51
2013-7-1,79.1,68.5,62.3,71.1,64.8,60.9,96,89,67,29.79,29.63,5,0,5,1.87
2013-7-2,80.2,68.9,62.5,71.1,65.8,61.0,97,90,65,29.97,29.79,4,0,4,0.47
2013-7-3,74.3,66.4,60.6,71.0,65.0,59.5,97,95,86,30.06,29.93,6,0,6,3.45
2013-7-4,70.8,64.6,60.7,69.9,63.7,59.5,98,97,95,30.07,30.00,7,0,7,2.05
2013-7-5,77.8,68.0,64.9,71.2,65.8,63.6,98,93,74,30.09,30.01,6,0,6,0.39
2013-7-6,79.5,70.2,64.7,71.6,67.2,63.5,97,90,71,30.05,29.95,5,0,5,1.73
2013-7-7,76.6,71.1,66.9,71.4,68.4,65.7,97,91,80,30.00,29.92,4,0,4,0.30
2013-7-8,82.7,72.5,66.7,73.1,68.3,65.5,96,87,61,30.03,29.94,4,0,4,0.01
2013-7-9,86.3,74.5,66.3,73.8,69.1,64.8,96,85,53,30.00,29.88,5,0,5,0.01
2013-7-10,84.2,71.3,64.9,74.4,68.2,63.7,97,90,68,29.95,29.78,7,0,7,1.81
2013-7-11,76.3,69.5,65.6,72.0,67.6,64.4,97,94,83,29.82,29.73,1,0,1,0.01
2013-7-12,81.0,70.3,65.5,70.1,65.4,59.8,97,85,61,29.78,29.72,9,0,9,0.00
2013-7-13,69.8,68.6,68.1,63.7,61.7,60.2,82,79,76,29.78,29.77,1,1,7,0.00
2013-7-14,69.8,68.6,68.1,63.7,61.7,60.2,82,79,76,29.78,29.77,1,1,7,0.00
2013-7-15,69.8,68.6,68.1,63.7,61.7,60.2,82,79,76,29.78,29.77,1,1,7,0.00
2013-7-16,69.8,68.6,68.1,63.7,61.6,60.2,82,79,76,29.78,29.77,1,1,7,0.00
2013-7-17,81.6,68.7,66.1,76.3,63.5,60.2,97,84,76,30.09,29.77,1,0,7,0.96
2013-7-18,83.1,72.1,64.1,75.5,68.4,62.9,97,89,68,30.06,29.92,3,0,3,0.00
2013-7-19,87.5,73.6,64.4,74.3,68.3,63.2,97,85,54,29.97,29.82,4,0,4,0.00
2013-7-20,83.7,71.6,66.7,73.5,68.2,65.2,96,90,65,29.88,29.82,4,0,4,0.16
2013-7-21,81.9,69.8,65.1,72.1,67.4,63.9,97,92,70,29.86,29.80,2,0,6,0.77
2013-7-22,83.7,71.8,64.8,73.7,68.1,63.9,97,89,67,29.85,29.68,3,0,3,0.05
2013-7-23,84.5,71.8,61.5,72.1,66.4,60.3,97,85,56,29.74,29.63,3,0,3,0.04
2013-7-24,83.7,70.7,63.6,71.9,65.6,62.4,97,85,59,29.71,29.62,9,0,9,0.00
2013-7-25,83.7,68.3,61.4,70.5,64.3,59.8,96,88,58,29.88,29.70,5,0,5,0.46
2013-7-26,82.5,68.9,59.9,71.3,64.9,58.8,97,88,62,29.94,29.85,6,0,6,0.24
2013-7-27,76.3,69.6,65.0,72.4,66.8,63.6,97,91,75,29.90,29.73,3,0,3,0.90
2013-7-28,81.3,69.9,62.7,70.7,65.2,60.8,96,86,61,29.87,29.75,3,0,3,0.00
2013-7-29,80.5,67.6,58.7,69.8,62.0,57.3,96,83,62,30.04,29.87,4,0,4,0.00
2013-7-30,79.5,67.7,56.5,70.6,63.1,54.7,96,86,67,30.08,29.98,4,0,4,0.09
2013-7-31,71.6,68.3,65.3,69.5,66.7,64.1,97,95,89,30.02,29.81,4,0,4,0.26
2013-8-1,79.9,69.8,64.4,73.2,66.7,62.9,97,90,73,29.83,29.75,7,0,7,1.04
2013-8-2,81.8,69.5,61.2,72.3,65.4,60.0,97,88,67,29.89,29.79,3,0,3,0.00
2013-8-3,82.4,71.2,63.7,70.8,66.1,62.2,96,85,60,29.89,29.81,1,0,3,0.00
2013-8-4,80.8,70.1,62.8,70.9,64.7,60.2,97,84,60,29.89,29.81,11,0,11,0.00
2013-8-5,80.3,69.2,60.3,69.9,64.5,58.6,96,86,64,29.92,29.81,3,0,3,0.00
2013-8-6,80.7,71.5,67.5,71.4,67.8,65.8,95,89,66,29.88,29.79,4,0,4,0.00
2013-8-7,70.8,68.5,66.0,69.9,67.2,64.8,97,96,92,29.90,29.84,0,0,1,1.96
2013-8-8,78.8,70.6,65.3,73.8,68.4,64.2,97,93,82,29.91,29.85,3,0,3,0.00
2013-8-9,83.3,72.7,67.6,74.8,69.6,66.4,97,90,70,29.93,29.85,4,0,4,0.02
2013-8-10,83.3,71.8,66.2,74.5,69.3,65.0,97,92,72,29.97,29.89,6,0,6,0.27
2013-8-11,83.0,69.9,64.2,75.8,67.8,63.0,97,93,72,30.00,29.92,5,0,5,0.10
2013-8-12,84.7,65.0,50.0,75.9,55.8,-99.9,97,81,50,29.96,29.82,7,-66,7,0.04
2013-8-13,83.2,70.3,65.3,74.6,67.5,63.8,97,91,69,29.83,29.67,6,0,6,0.08
2013-8-14,75.6,66.2,60.5,65.1,61.4,58.0,97,86,60,29.92,29.74,10,0,10,0.02
2013-8-15,64.3,60.7,56.6,60.0,57.1,53.9,96,88,76,30.00,29.90,6,0,6,0.00
2013-8-16,68.0,60.6,55.2,60.9,56.7,53.4,96,88,70,30.03,29.95,6,0,6,0.00
2013-8-17,65.0,60.6,57.0,60.0,57.5,54.5,96,90,79,30.04,29.98,6,0,6,0.10
2013-8-18,75.0,64.9,60.0,70.1,62.8,58.8,97,93,80,30.09,29.98,2,0,2,0.15
2013-8-19,70.7,65.2,62.3,68.2,63.9,61.1,97,96,91,30.05,29.94,3,0,3,1.29
2013-8-20,74.9,66.7,60.9,70.3,64.8,59.8,97,94,82,30.06,29.97,1,0,1,0.00
2013-8-21,71.8,67.2,64.2,69.3,65.9,63.0,97,96,90,30.09,29.98,2,0,2,0.15
2013-8-22,81.3,69.0,61.5,71.6,65.8,60.3,97,90,68,30.04,29.89,4,0,4,0.00
2013-8-23,81.9,69.5,60.6,71.9,65.1,59.3,97,87,64,29.93,29.83,9,0,9,0.00
2013-8-24,76.5,66.4,58.3,65.2,61.3,56.3,96,84,60,30.16,29.93,6,0,6,0.00
2013-8-25,75.4,62.7,52.9,61.9,56.9,51.5,99,83,53,30.25,30.14,7,0,7,0.00
2013-8-26,78.8,63.8,52.8,65.3,58.5,51.4,96,84,55,30.20,30.00,1,0,1,0.00
2013-8-27,81.5,67.5,55.5,69.3,62.5,54.1,97,85,59,30.03,29.89,8,0,8,0.00
2013-8-28,83.5,71.2,62.4,72.1,66.4,61.0,97,86,63,29.92,29.80,0,0,0,0.00
2013-8-29,85.1,72.1,64.5,73.6,67.8,63.0,97,87,64,29.84,29.76,0,0,0,0.00
2013-8-30,76.2,70.3,68.3,71.5,68.1,66.6,96,93,83,29.89,29.79,0,0,0,0.01
2013-8-31,84.5,70.1,64.5,74.5,67.5,63.3,97,92,65,29.82,29.73,0,0,0,1.20
2013-9-1,82.2,70.5,63.4,75.5,68.1,62.5,98,93,76,29.77,29.66,0,0,0,0.02
2013-9-2,82.1,69.7,62.2,73.1,66.2,61.0,97,89,68,29.78,29.68,0,0,0,0.02
2013-9-3,80.7,68.0,61.0,69.9,63.8,59.8,96,88,65,29.85,29.71,0,0,0,0.06
2013-9-4,78.9,68.0,59.0,70.9,63.9,57.9,97,87,66,29.97,29.84,0,0,0,0.00
2013-9-5,82.0,67.4,60.1,69.4,61.4,55.4,97,83,45,30.00,29.93,1,0,1,0.00
2013-9-6,79.7,64.7,55.3,65.6,59.7,53.9,96,85,56,30.05,29.94,0,0,0,0.00
2013-9-7,82.1,65.6,54.9,68.6,61.6,53.5,97,88,61,29.99,29.86,0,0,0,0.00
2013-9-8,77.8,66.2,59.0,69.5,63.3,57.6,97,91,70,29.89,29.81,4,0,4,0.02
2013-9-9,78.7,67.7,60.6,70.7,64.6,59.5,97,90,72,30.01,29.88,0,0,0,0.00
2013-9-10,82.0,68.3,59.0,71.7,64.5,57.9,97,89,66,30.11,30.00,0,0,0,0.00
2013-9-11,84.4,68.2,59.5,71.5,64.9,58.4,97,90,57,30.09,29.96,0,0,0,0.62
2013-9-12,81.0,66.9,62.2,73.1,65.2,61.1,97,94,73,29.96,29.74,10,0,12,1.13
2013-9-13,75.7,64.1,54.9,63.6,58.7,52.1,97,84,53,29.77,29.67,5,0,5,0.04
2013-9-14,70.8,58.1,49.6,60.1,52.9,47.9,95,84,55,29.99,29.77,1,0,1,0.00
2013-9-15,72.8,60.7,52.1,64.1,57.3,50.7,96,89,67,30.07,29.98,1,0,1,0.00
2013-9-16,78.3,63.5,53.8,65.8,59.2,52.7,97,87,59,30.03,29.94,4,0,4,0.00
2013-9-17,64.8,61.4,58.4,61.1,55.9,51.7,93,82,69,30.14,30.02,3,0,3,0.00
2013-9-18,65.8,59.8,54.0,60.2,56.3,52.0,94,89,75,30.14,30.02,0,0,0,0.00
2013-9-19,76.1,63.8,56.3,67.2,60.9,54.9,96,91,66,30.05,29.94,0,0,0,0.03
2013-9-20,78.9,65.5,56.8,68.5,62.1,55.7,97,90,61,29.95,29.78,2,0,3,0.00
2013-9-21,66.1,62.0,57.3,64.4,60.8,56.2,97,96,94,29.80,29.55,1,0,1,1.26
2013-9-22,71.0,59.0,52.0,58.6,54.5,51.0,97,86,55,29.79,29.61,6,0,6,0.00
2013-9-23,71.5,59.4,53.2,61.6,55.8,51.8,96,88,63,29.92,29.79,4,0,4,0.00
2013-9-24,69.6,60.7,51.4,62.5,57.5,50.0,97,90,72,29.93,29.78,3,0,3,0.00
2013-9-25,61.0,59.2,56.8,60.0,57.9,55.6,97,96,94,29.80,29.71,0,0,1,1.05
2013-9-26,68.7,59.3,53.8,62.4,56.8,52.3,97,92,74,29.91,29.74,4,0,4,0.00
2013-9-27,71.3,57.7,47.5,59.9,53.7,46.4,97,88,58,30.05,29.91,6,0,6,0.00
2013-9-28,66.8,57.7,50.7,57.9,54.0,49.1,96,88,70,30.11,30.01,0,0,0,0.00
2013-9-29,67.9,57.0,47.9,57.8,52.7,46.3,96,86,61,30.04,29.90,0,0,0,0.00
2013-9-30,68.8,57.7,49.7,60.3,54.6,48.2,96,90,69,29.97,29.87,6,0,6,0.00
2013-10-1,73.6,58.9,48.7,63.8,55.4,47.5,97,89,59,30.04,29.93,3,0,3,0.00
2013-10-2,74.2,61.0,52.8,63.1,56.9,51.7,97,87,59,30.05,29.95,9,0,9,0.00
2013-10-3,74.1,62.9,55.1,65.0,59.3,53.9,97,89,67,30.00,29.93,5,0,5,0.00
2013-10-4,77.1,63.4,55.0,65.4,59.5,53.6,97,88,59,30.03,29.95,4,0,4,0.00
2013-10-5,77.5,63.8,54.7,67.8,60.2,53.6,97,89,63,30.02,29.90,3,0,3,0.00
2013-10-6,75.7,64.3,57.6,65.4,60.8,56.5,97,89,66,29.92,29.73,6,0,6,0.11
2013-10-7,63.4,57.8,49.1,61.9,55.5,47.5,97,92,75,29.89,29.65,7,0,7,1.36
2013-10-8,61.6,53.1,46.3,52.7,48.2,45.2,96,85,61,30.08,29.88,11,0,11,0.00
2013-10-9,65.4,52.6,42.6,52.8,46.6,41.0,95,82,52,30.10,29.99,7,0,7,0.00
2013-10-10,68.7,53.8,40.6,54.8,48.4,39.3,97,84,55,30.02,29.91,9,0,9,0.00
2013-10-11,70.5,57.1,46.6,55.7,50.9,45.2,100,82,47,29.92,29.83,9,0,9,0.00
2013-10-12,70.7,59.7,51.3,61.1,55.4,49.9,96,86,64,29.96,29.86,6,0,6,0.00
2013-10-13,68.8,61.6,57.5,61.8,58.5,56.0,96,90,74,30.06,29.96,6,0,6,0.07
2013-10-14,64.5,60.0,57.1,59.7,57.7,55.2,96,92,82,30.08,30.00,9,0,9,0.01
2013-10-15,63.0,57.7,53.1,57.9,54.6,51.4,95,90,76,30.04,29.91,5,0,5,0.01
2013-10-16,65.9,56.9,48.4,59.5,53.9,47.3,97,90,74,29.94,29.82,2,0,2,0.00
2013-10-17,64.8,60.0,56.5,63.0,58.6,54.4,97,95,92,29.84,29.69,4,0,4,0.08
2013-10-18,65.0,54.7,45.5,56.1,50.9,43.8,95,87,68,29.89,29.77,4,0,4,0.00
2013-10-19,61.6,53.8,45.4,53.7,50.3,43.7,96,89,59,29.83,29.70,2,0,2,0.01
2013-10-20,60.6,47.6,37.5,48.7,42.6,36.1,99,84,57,29.97,29.81,6,0,6,0.00
2013-10-21,62.5,49.4,38.8,52.5,45.6,37.5,96,87,64,30.02,29.88,5,0,5,0.00
2013-10-22,63.1,54.6,49.3,54.3,50.3,47.3,95,86,66,29.89,29.67,4,0,4,0.00
2013-10-23,57.5,45.4,34.3,47.3,36.2,27.5,96,73,36,29.91,29.61,10,0,10,0.00
2013-10-24,53.1,40.3,29.3,40.5,32.8,26.8,93,76,50,30.06,29.90,5,0,6,0.00
2013-10-25,43.8,35.9,29.0,37.5,26.9,22.0,92,71,43,30.26,30.06,14,1,14,0.00
2013-10-26,52.7,38.1,25.1,36.5,29.9,22.0,90,74,44,30.25,29.98,9,0,9,0.00
2013-10-27,62.4,49.5,37.7,50.6,43.1,35.5,95,80,58,30.02,29.94,7,0,7,0.00
2013-10-28,59.7,52.6,46.1,55.4,49.8,44.2,96,90,76,30.12,29.98,3,0,3,0.06
2013-10-29,65.8,53.9,46.0,52.9,48.8,44.7,96,84,52,30.21,30.10,4,0,4,0.00
2013-10-30,72.5,60.3,52.1,57.7,53.8,49.8,94,81,55,30.15,30.01,4,0,4,0.00
2013-10-31,63.3,59.5,54.8,59.1,54.9,51.9,95,85,69,30.03,29.72,13,0,13,0.05
2013-11-1,71.3,61.0,50.0,59.5,56.0,48.0,96,85,47,29.72,29.48,12,0,13,0.17
2013-11-2,61.2,48.5,40.9,48.0,40.2,34.8,95,75,39,29.89,29.59,9,0,9,0.00
2013-11-3,53.5,43.6,35.6,37.7,35.2,33.1,93,74,49,30.24,29.87,8,0,8,0.00
2013-11-4,52.3,40.8,32.6,35.0,32.2,29.6,93,74,45,30.39,30.23,9,0,9,0.00
2013-11-5,54.1,41.4,30.9,40.2,33.0,27.9,92,74,38,30.42,30.31,6,0,6,0.00
2013-11-6,63.1,52.0,43.9,52.6,47.9,40.6,96,86,66,30.32,29.99,5,0,5,0.02
2013-11-7,57.2,49.3,35.6,54.6,43.6,27.8,96,81,58,30.02,29.86,20,1,20,0.03
2013-11-8,50.9,39.6,31.6,29.3,24.6,19.1,78,58,29,30.20,30.01,9,1,9,0.00
2013-11-9,54.4,41.0,28.8,35.3,29.6,24.3,86,66,40,30.25,30.11,5,0,5,0.00
2013-11-10,65.3,47.8,36.7,38.3,32.4,28.5,79,58,29,30.16,30.04,12,0,12,0.00
2013-11-11,59.6,43.9,30.9,34.2,29.8,25.9,83,60,36,30.20,30.02,4,0,4,0.00
2013-11-12,54.7,37.7,22.7,37.9,27.8,12.0,83,68,43,30.33,29.96,18,2,21,0.00
2013-11-13,42.9,29.2,18.9,20.1,13.5,7.1,78,55,27,30.44,30.32,12,1,12,0.00
2013-11-14,56.4,35.9,22.0,25.9,20.0,16.6,86,57,24,30.38,30.22,4,0,4,0.00
2013-11-15,52.8,42.8,29.3,47.8,35.4,14.7,96,77,41,30.22,30.07,5,0,5,0.15
2013-11-16,60.9,51.6,47.3,54.7,49.7,46.1,97,93,78,30.12,30.02,3,0,3,0.01
2013-11-17,59.4,55.9,53.0,56.8,54.0,51.0,97,94,87,30.06,29.74,7,0,7,0.49
2013-11-18,62.0,53.3,41.8,57.2,43.2,28.9,97,72,39,29.88,29.70,15,1,15,0.07
2013-11-19,48.9,41.1,34.4,31.1,26.2,19.3,77,57,33,30.12,29.87,12,1,12,0.00
2013-11-20,46.2,37.7,29.5,30.6,27.0,24.3,85,66,45,30.33,30.12,10,0,10,0.00
2013-11-21,46.5,43.2,39.1,45.0,38.3,29.4,96,83,67,30.36,30.25,4,0,4,0.16
2013-11-22,64.8,53.8,46.0,59.2,51.9,44.9,97,94,79,30.27,29.98,6,0,6,0.08
2013-11-23,55.0,45.7,32.3,53.9,39.2,18.7,96,79,43,30.06,29.94,15,2,15,0.00
2013-11-24,33.2,26.9,20.7,20.8,10.2,1.6,68,51,27,30.40,30.06,16,2,16,0.00
2013-11-25,41.6,30.2,20.9,23.7,13.2,6.6,73,51,26,30.42,30.20,5,0,5,0.00
2013-11-26,41.7,36.9,30.0,40.6,35.0,22.9,100,93,70,30.20,29.55,4,0,4,3.38
2013-11-27,42.1,30.4,21.7,40.9,24.8,13.7,96,80,61,30.08,29.48,20,2,20,0.11
2013-11-28,45.1,28.5,17.1,25.5,19.0,12.8,87,70,38,30.37,30.08,5,0,5,0.00
2013-11-29,49.9,34.5,25.7,27.0,23.4,19.9,88,67,31,30.48,30.35,5,0,5,0.00
2013-11-30,43.1,32.9,26.2,26.8,23.7,21.5,89,70,47,30.49,30.25,5,0,5,0.00
2013-12-1,56.6,37.7,26.3,37.7,29.7,22.9,88,75,43,30.25,29.91,6,0,6,0.00
2013-12-2,54.2,41.8,31.6,42.6,36.1,28.7,92,81,61,29.91,29.69,5,0,5,0.00
2013-12-3,53.8,47.3,41.7,48.4,44.9,39.3,96,91,79,29.81,29.71,4,0,4,0.00
2013-12-4,62.7,54.1,47.9,55.5,51.5,46.5,97,91,74,29.91,29.79,7,0,7,0.02
2013-12-5,66.0,60.1,55.2,61.8,58.4,54.1,97,94,82,29.92,29.82,6,0,6,0.62
2013-12-6,66.4,62.7,50.9,62.3,60.4,49.3,97,92,85,29.87,29.75,10,1,16,0.78
2013-12-7,50.9,44.5,38.5,49.5,41.4,36.9,96,89,77,30.22,29.83,10,0,10,0.02
2013-12-8,41.0,36.0,33.7,39.1,34.5,32.4,96,94,92,30.22,30.09,5,0,6,0.40
2013-12-9,55.1,46.6,35.2,54.3,45.5,34.2,100,96,94,30.10,29.88,5,0,5,1.05
2013-12-10,52.2,39.7,26.4,51.3,35.3,22.4,100,85,58,30.18,29.73,16,1,16,0.29
2013-12-11,46.5,31.8,22.6,29.5,23.8,19.6,90,74,41,30.33,30.18,4,0,4,0.00
2013-12-12,37.0,29.5,24.6,23.6,18.5,11.5,82,65,38,30.31,30.20,10,1,10,0.00
2013-12-13,46.5,32.4,21.6,28.4,20.8,14.2,84,64,37,30.28,30.15,5,0,5,0.00
2013-12-14,42.4,37.7,34.4,41.2,34.2,26.0,96,87,69,30.16,29.65,4,0,4,0.91
2013-12-15,41.3,35.2,26.5,40.0,31.3,24.0,96,86,61,30.00,29.63,14,1,14,0.00
2013-12-16,52.4,36.1,24.2,34.6,26.9,22.0,93,72,40,30.10,29.99,6,0,6,0.00
2013-12-17,56.8,42.4,29.9,35.5,29.4,20.5,88,63,37,30.04,29.83,15,1,15,0.00
2013-12-18,43.2,33.5,25.6,23.9,19.4,15.7,79,58,33,30.19,29.93,10,0,10,0.00
2013-12-19,60.0,42.2,26.3,30.9,25.4,19.2,82,55,30,30.23,30.09,9,0,9,0.00
2013-12-20,60.1,50.2,41.6,49.2,36.2,26.7,88,61,32,30.10,29.97,3,0,6,0.00
2013-12-21,61.4,56.6,52.8,60.0,54.5,49.2,97,93,85,29.99,29.79,13,0,13,0.53
2013-12-22,62.0,57.9,54.5,60.7,56.6,53.4,97,96,90,29.89,29.76,16,1,16,2.88
2013-12-23,55.0,46.3,33.3,54.1,44.3,30.1,97,93,85,30.05,29.83,12,0,12,0.23
2013-12-24,34.2,28.4,19.7,30.1,22.2,15.0,91,78,58,30.31,30.04,12,1,12,0.00
2013-12-25,36.0,24.2,16.1,19.8,16.2,13.7,92,73,44,30.41,30.27,5,0,5,0.00
2013-12-26,44.7,30.0,19.7,26.7,21.8,16.8,92,73,47,30.28,30.18,5,0,5,0.00
2013-12-27,46.4,32.2,22.4,27.2,24.3,20.2,94,75,44,30.36,30.26,5,0,5,0.00
2013-12-28,43.6,33.3,23.9,37.0,29.3,21.7,95,86,55,30.32,30.00,3,0,3,0.29
2013-12-29,50.5,39.3,35.4,46.9,37.4,33.3,100,93,80,30.00,29.70,9,0,9,1.03
2013-12-30,42.3,35.5,32.1,39.7,33.3,30.4,96,92,83,30.04,29.86,5,0,6,0.00
2013-12-31,39.1,31.0,26.3,30.4,25.1,21.1,95,80,54,30.27,30.02,10,0,10,0.00
2014-1-1,44.0,32.7,24.7,30.1,25.9,21.8,92,77,46,30.27,30.02,6,0,6,0.00
2014-1-2,45.8,35.9,19.7,44.5,32.1,9.9,96,86,65,30.02,29.54,22,1,22,0.07